Weather Roundup
Issued by NWS Springfield, MO

Home | Current Version | Previous Version | Text Only | Print | Product List | Glossary On
Versions: 1 2 3 4 5 6 7 8 9 10 11 12 13 14 15 16 17 18 19 20 21 22 23 24 25 26 27 28 29 30 31 32 33 34 35 36 37 38 39 40 41 42 43 44 45 46 47 48 49 50
000
NZUS99 KSGF 251759
HRRSGF

HOURLY WEATHER
NATIONAL WEATHER SERVICE SPRINGFIELD MO
1200 PM CST SUN JAN 25 2015

......SGF CWA......

CITY           SKY/WX    TMP DP  RH WIND       PRES   REMARKS
SPRINGFIELD    LGT RAIN  39  35  86 NW26G37   29.74R WCI  28
6HR MIN TEMP:  39; 6HR MAX TEMP:  48; 6HR PCP:  0.01;

JOPLIN         CLOUDY    42  31  64 NW23G31   29.84R
6HR MIN TEMP:  42; 6HR MAX TEMP:  49;

WEST PLAINS    CLOUDY    48  40  73 W15G23    29.65S
6HR MIN TEMP:  43; 6HR MAX TEMP:  48; 6HR PCP:  0.05;

ROLLA          LGT RAIN  42  38  85 W15       29.63R
6HR MIN TEMP:  42; 6HR MAX TEMP:  45; 6HR PCP:  0.01;

OSAGE BEACH    CLOUDY    41  36  81 NW9G16    29.69R
BRANSON        LGT RAIN  41  39  93 NW13G18   29.74S FOG

......SURROUNDING SGF CWA......

CITY           SKY/WX    TMP DP  RH WIND       PRES   REMARKS
CHANUTE        CLOUDY    43  32  65 N22G38    29.89R
PARSONS        CLOUDY    46  33  60 N21G26    29.89R
COFFEYVILLE    CLOUDY    49  32  52 NW26G40   29.89R
EMPORIA        PTSUNNY   44  31  60 NW31G38   29.90R
SILOAM SPRINGS CLOUDY   N/A N/A N/A NW31G40   29.84R
HARRISON AR    CLOUDY    43  39  86 W15G29    29.74R
NEAR YELLVILLE CLOUDY    48  34  57 W16G33    29.72R

......KANSAS AND MISSOURI......

CITY           SKY/WX    TMP DP  RH WIND       PRES   REMARKS
KANSAS CTY INT CLOUDY    37  34  89 N21G32    29.81R WCI  26
DOWNTOWN KC    CLOUDY    40  34  79 NW16G29   29.81R WCI  31
COLUMBIA       LGT RAIN  41  40  96 NW15G22   29.65R FOG
SEDALIA        LGT RAIN  38  34  85 NW18G28   29.72R WCI  28
ST JOSEPH      CLOUDY    38  34  85 N25G36    29.86R WCI  27
ST LOUIS       LGT RAIN  47  43  86 W9        29.59S FOG
SPIRIT OF STL  CLOUDY    46  42  86 W10       29.59S
KIRKSVILLE     CLOUDY    35  33  92 N22G28    29.73R WCI  23
WICHITA        PTSUNNY   51  29  42 NW32G44   29.98R
TOPEKA         CLOUDY    40  32  73 NW24G37   29.90R WCI  29
OLATHE         CLOUDY    38  34  85 NW20G30   29.81R WCI  28

......TENNESSEE......

CITY           SKY/WX    TMP DP  RH WIND       PRES   REMARKS
MEMPHIS        PTSUNNY   50  42  74 SW15G21   29.71F
NASHVILLE      PTSUNNY   56  36  47 S18G28    29.67F

......ARKANSAS.......

CITY           SKY/WX    TMP DP  RH WIND       PRES   REMARKS
FAYETTEVILLE   CLOUDY    45  35  68 NW21G32   29.81R
FT SMITH       CLOUDY    53  34  48 NW18G29   29.85R
LITTLE ROCK    PTSUNNY   61  34  36 W21G28    29.73F

......OKLAHOMA.......

CITY           SKY/WX    TMP DP  RH WIND       PRES   REMARKS
TULSA          CLOUDY    54  32  43 NW28G37   29.90R
PONCA CITY     CLOUDY    53  29  39 N22G38    29.99R
MCALESTER      LGT RAIN  55  32  41 NW22G30   29.94S
OKLAHOMA CITY  MOSUNNY   55  28  35 N28G41    30.02S

......IOWA............

CITY           SKY/WX    TMP DP  RH WIND       PRES   REMARKS
DES MOINES     CLOUDY    34  30  85 NE16      29.90R WCI  24
QUAD CITIES    LGT SNOW  30  27  88 NE14G21   29.80R FOG     WCI  19

......ILLINOIS........

CITY           SKY/WX    TMP DP  RH WIND       PRES   REMARKS
QUINCY         CLOUDY    37  34  89 NE20G25   29.66R FOG     WCI  27
CHICAGO        LGT SNOW  30  26  85 NE17G32   29.80R FOG     WCI  18




USA.gov is the U.S. government's official web portal to all federal, state and local government web resources and services.